User: anonymous   Login
Location: Banksville Park
(38.5557°N, 75.1182°W)
Time: 14:42:41
(UTC+00:00)
Language:

Meteor 2-13 Rocket - Orbit

View from above orbital plane
View from above orbital plane
View from above satellite
View from above satellite

Ground track
Ground track

The orbit data is extracted from the following two-line orbital elements,

1 16409U 85119B   20339.39890086  .00000038  00000-0  20002-4 0  9993
2 16409  82.5388  71.4516 0016134  72.7257 287.5667 13.84814586765787
Epoch (UTC): 04 December 2020 09:34:25
Eccentricity: 0.0016134
inclination: 82.5388°
perigee height: 935 km
apogee height: 958 km
right ascension of ascending node: 71.4516°
argument of perigee: 72.7257°
revolutions per day: 13.84814586
mean anomaly at epoch: 287.5667°
orbit number at epoch: 76578

The dashed part of the orbit path shows where the satellite is in the earth's shadow,  

DLR